This demonstration page uses our WeatherBlox Daily Observations layout. Learn more.

Hourly Observations for March 9, 2020

Temp ( °F °C ) Dew Point ( °F °C ) Humidity (%) Winds ( mph kmh ) Pressure ( in mb ) Visibility ( mi km ) Precip ( " mm )
12:15 am 00:15 Cloudy 54 12 48 9 82 82 NNW 3 6 29.89 1012 10 16.0934 0 0
12:35 am 00:35 Cloudy 52 11 43 6.1 72 72 NNE 12 19 29.9 1013 10 16.0934 0 0
12:55 am 00:55 Cloudy 47 8.1 39 3.8 75 75 NNE 16 26 29.93 1014 10 16.0934 0 0
1:15 am 01:15 Cloudy with Light Drizzle 44 6.4 38 3.5 82 82 NNE 21 33 29.95 1014 10 16.0934 0 0
1:35 am 01:35 Cloudy 42 5.5 38 3.3 86 86 NNE 20 31 29.95 1014 10 16.0934 0 0
1:55 am 01:55 Cloudy 41 5 38 3.1 88 88 NNE 20 31 29.96 1014 7 11.26538 0 0
2:15 am 02:15 Cloudy with Mist and Fog 40 4.2 37 2.8 91 91 NNE 21 33 29.98 1015 4 6.43736 0 0
2:35 am 02:35 Cloudy with Mist and Fog 39 4 37 2.7 91 91 N 16 26 29.99 1015 3 4.82802 0 0
2:55 am 02:55 Cloudy with Light Rain 38 3.5 37 2.5 93 93 NNE 16 26 29.99 1016 2.5 4.02335 0 0
3:15 am 03:15 Cloudy with Light Rain 38 3.2 36 2.3 94 94 NNE 16 26 29.98 1015 2.5 4.02335 0 0
3:35 am 03:35 Cloudy with Light Rain 37 3 36 2.1 94 94 NNE 17 28 29.98 1015 2.5 4.02335 0 0
3:55 am 03:55 Cloudy with Light Rain 37 2.6 36 2 96 96 NNE 20 31 29.98 1015 3 4.82802 0 0
4:15 am 04:15 Cloudy with Light Rain 37 2.5 35 1.8 95 95 NNE 20 31 29.99 1016 3 4.82802 0.02 0.508
4:35 am 04:35 Cloudy with Rain 36 2.2 35 1.5 95 95 NNE 24 39 29.97 1015 3 4.82802 0.04 1.016
4:55 am 04:55 Cloudy with Light Rain 36 2 34 1.2 95 95 NNE 20 31 30 1016 5 8.0467 0.07 1.778
5:15 am 05:15 Cloudy with Light Rain 35 1.8 34 1 95 95 N 17 28 30.01 1016 7 11.26538 0 0
5:35 am 05:35 Cloudy with Light Rain 35 1.8 34 1 95 95 N 17 28 30.01 1016 10 16.0934 0 0
5:55 am 05:55 Cloudy with Light Rain 35 1.5 33 0.6 94 94 N 20 31 30 1016 1.75 2.816345 0.07 1.778
6:15 am 06:15 Cloudy with Light Rain 34 1.1 32 0.2 94 94 N 18 30 30.03 1017 10 16.0934 0 0
6:35 am 06:35 Cloudy 34 1 32 0 93 93 N 17 28 30.03 1017 10 16.0934 0 0
6:55 am 06:55 Cloudy 33 0.8 32 0 94 94 N 23 37 30.04 1017 10 16.0934 0 0
7:15 am 07:15 Cloudy with Light Wintry Mix 33 0.7 32 0 95 95 N 17 28 30.05 1018 5 8.0467 0 0
7:35 am 07:35 Cloudy with Light Wintry Mix 33 0.6 32 0 96 96 N 21 33 30.05 1018 3 4.82802 0 0
7:55 am 07:55 Cloudy with Light Wintry Mix 33 0.5 32 0 96 96 N 16 26 30.08 1019 3 4.82802 0.01 0.254
8:15 am 08:15 Cloudy with Light Wintry Mix 33 0.7 32 0 95 95 N 14 22 30.1 1019 2.5 4.02335 0.02 0.508
8:35 am 08:35 Cloudy with Light Wintry Mix 33 0.6 32 0 96 96 NNE 20 31 30.07 1018 2 3.21868 0.05 1.27
8:55 am 08:55 Cloudy with Light Snow 33 0.6 32 0 96 96 NNE 15 24 30.07 1018 4 6.43736 0.08 2.032
9:15 am 09:15 Cloudy with Light Wintry Mix 33 0.6 32 0 96 96 NNE 14 22 30.09 1019 4 6.43736 0.01 0.254
9:35 am 09:35 Cloudy with Light Wintry Mix 33 0.5 32 0 96 96 N 10 17 30.1 1019 3 4.82802 0.04 1.016
9:55 am 09:55 Cloudy with Light Snow 33 0.6 32 0 96 96 N 9 15 30.12 1020 4 6.43736 0.06 1.524
10:15 am 10:15 Cloudy with Light Wintry Mix 33 0.6 32 0 96 96 N 9 15 30.11 1020 10 16.0934 0 0
10:35 am 10:35 Cloudy with Light Wintry Mix 33 0.7 32 0 95 95 N 10 17 30.13 1020 10 16.0934 0 0
10:55 am 10:55 Cloudy 33 0.7 32 0 95 95 NNW 12 19 30.14 1021 7 11.26538 0 0
11:15 am 11:15 Cloudy 34 1 32 0.1 94 94 N 14 22 30.13 1020 10 16.0934 0 0
11:35 am 11:35 Cloudy 34 1.1 32 0.1 93 93 N 14 22 30.14 1021 10 16.0934 0 0
11:55 am 11:55 Cloudy 34 1.2 32 0.1 92 92 N 13 20 30.13 1020 10 16.0934 0 0
12:15 pm 12:15 Cloudy 34 1.3 32 0.2 92 92 N 13 20 30.13 1020 10 16.0934 0 0
12:35 pm 12:35 Cloudy 34 1.3 33 0.3 93 93 N 10 17 30.13 1020 10 16.0934 0 0
12:55 pm 12:55 Cloudy 35 1.5 33 0.4 92 92 N 13 20 30.13 1020 10 16.0934 0 0
1:15 pm 13:15 Cloudy 35 1.5 33 0.3 92 92 NNW 16 26 30.15 1021 10 16.0934 0 0
1:35 pm 13:35 Cloudy 35 1.8 33 0.5 91 91 NNW 17 28 30.15 1021 10 16.0934 0 0
1:55 pm 13:55 Cloudy 36 2.3 33 0.7 89 89 NNW 16 26 30.14 1021 10 16.0934 0 0
2:15 pm 14:15 Cloudy 37 2.8 34 0.9 87 87 N 15 24 30.13 1020 10 16.0934 0 0
2:35 pm 14:35 Cloudy 38 3.6 34 1.3 85 85 NNW 15 24 30.13 1020 10 16.0934 0 0
2:55 pm 14:55 Cloudy 38 3.5 34 1.2 85 85 NW 13 20 30.14 1021 10 16.0934 0 0
3:15 pm 15:15 Cloudy 40 4.2 35 1.7 84 84 NNW 15 24 30.14 1021 10 16.0934 0 0
3:35 pm 15:35 Cloudy 40 4.5 35 1.9 83 83 NNW 15 24 30.13 1020 10 16.0934 0 0
3:55 pm 15:55 Cloudy 42 5.4 37 2.7 83 83 NNW 12 19 30.12 1020 10 16.0934 0 0
4:15 pm 16:15 Cloudy 42 5.3 36 2.4 82 82 NNW 12 19 30.12 1020 10 16.0934 0 0
4:35 pm 16:35 Cloudy 41 5.2 36 2.3 82 82 NNW 9 15 30.13 1020 10 16.0934 0 0
4:55 pm 16:55 Cloudy 42 5.6 37 2.7 82 82 NNW 9 15 30.11 1020 10 16.0934 0 0
5:15 pm 17:15 Cloudy 42 5.6 37 2.6 81 81 N 9 15 30.11 1020 10 16.0934 0 0
5:35 pm 17:35 Cloudy 42 5.6 37 2.6 81 81 NNW 7 11 30.12 1020 10 16.0934 0 0
5:55 pm 17:55 Cloudy 42 5.8 37 2.8 81 81 N 10 17 30.12 1020 10 16.0934 0 0
6:15 pm 18:15 Cloudy 42 5.6 37 2.7 82 82 N 7 11 30.13 1020 10 16.0934 0 0
6:35 pm 18:35 Cloudy 42 5.5 37 2.6 82 82 N 7 11 30.14 1021 10 16.0934 0 0
6:55 pm 18:55 Cloudy 41 5 36 2.4 83 83 N 5 7 30.16 1021 10 16.0934 0 0
7:15 pm 19:15 Cloudy 41 5 37 2.5 84 84 N 6 9 30.16 1021 10 16.0934 0 0
7:35 pm 19:35 Mostly Cloudy 39 3.9 35 1.9 87 87 N 5 7 30.19 1022 10 16.0934 0 0
7:55 pm 19:55 Partly Cloudy 36 2.1 33 0.5 89 89 NNE 5 7 30.21 1023 10 16.0934 0 0
8:15 pm 20:15 Clear 36 2 33 0.8 92 92 NNE 5 7 30.22 1023 10 16.0934 0 0
8:35 pm 20:35 Clear 35 1.6 33 0.5 93 93 NNE 3 6 30.23 1024 10 16.0934 0 0
8:55 pm 20:55 Clear 34 1.1 32 0.1 93 93 NNE 3 6 30.24 1024 10 16.0934 0 0
9:15 pm 21:15 Clear 33 0.5 32 -0.1 96 96 NNE 5 7 30.25 1024 10 16.0934 0 0
9:35 pm 21:35 Clear 32 0.1 31 -0.5 96 96 NE 3 6 30.26 1025 10 16.0934 0 0
9:55 pm 21:55 Clear 32 0 31 -0.6 96 96 NE 7 11 30.27 1025 7 11.26538 0 0
10:15 pm 22:15 Clear 32 -0.1 31 -0.7 96 96 NE 8 13 30.28 1025 7 11.26538 0 0
10:35 pm 22:35 Clear 32 0 32 -0.2 99 99 E 5 7 30.29 1026 7 11.26538 0 0
10:55 pm 22:55 Clear 32 0 32 -0.2 99 99 E 5 7 30.29 1026 7 11.26538 0 0
11:15 pm 23:15 Cloudy with Fog 33 0.5 32 0 96 96 E 6 9 30.28 1025 0.5 0.80467 0 0
11:35 pm 23:35 Cloudy with Fog 33 0.7 32 0.2 97 97 E 3 6 30.29 1026 0.25 0.402335 0 0
11:55 pm 23:55 Cloudy with Fog 33 0.5 32 0.1 97 97 E 3 6 30.3 1026 0.25 0.402335 0 0

Powered by AerisWeather